This is the latest recevied weather packets stored in our database for station/object KU9TRY. If no packets are shown the sender has not sent any weather packets the latest 10 day(s).
| Time | Temp. | Humidity | Pressure | Rain* | Wind** | Luminosity | Snow |
|---|---|---|---|---|---|---|---|
| 1778360326 | 22.22° C | 64% | 1010.9 hPa | 0 mm | - | 87 W/m² | - |
| 1778360020 | 23.33° C | 64% | 1010.6 hPa | 0 mm | - | 68 W/m² | - |
| 1778359717 | 23.89° C | 56% | 1010.6 hPa | 0 mm | - | 61 W/m² | - |
| 1778359414 | 23.89° C | 51% | 1010.7 hPa | 0 mm | - | 91 W/m² | - |
| 1778359110 | 23.89° C | 50% | 1010.7 hPa | 0 mm | - | 122 W/m² | - |
| 1778358807 | 23.89° C | 49% | 1010.9 hPa | 0 mm | - | 126 W/m² | - |
| 1778358503 | 23.89° C | 51% | 1010.9 hPa | 0 mm | - | 92 W/m² | - |
| 1778358200 | 23.89° C | 51% | 1010.9 hPa | 0 mm | - | 74 W/m² | - |
| 1778357899 | 23.89° C | 51% | 1011 hPa | 0 mm | - | 79 W/m² | - |
| 1778357596 | 23.89° C | 57% | 1011.2 hPa | 0 mm | - | 81 W/m² | - |
| 1778357292 | 23.89° C | 56% | 1011 hPa | 0 mm | - | 101 W/m² | - |
| 1778356988 | 23.89° C | 52% | 1011.1 hPa | 0 mm | - | 84 W/m² | - |
| 1778356684 | 23.33° C | 53% | 1011.2 hPa | 0 mm | - | 103 W/m² | - |
| 1778356380 | 23.33° C | 53% | 1011.5 hPa | 0 mm | - | 128 W/m² | - |
| 1778356079 | 23.33° C | 56% | 1011.6 hPa | 0 mm | - | 90 W/m² | - |
| 1778355775 | 23.33° C | 54% | 1011.2 hPa | 0 mm | - | 83 W/m² | - |
| 1778355472 | 23.33° C | 55% | 1011.5 hPa | 0 mm | - | 88 W/m² | - |
| 1778355167 | 23.33° C | 57% | 1011.2 hPa | 0 mm | - | 146 W/m² | - |
| 1778354863 | 23.89° C | 56% | 1011.5 hPa | 0 mm | - | 114 W/m² | - |
| 1778354564 | 23.33° C | 54% | 1011.4 hPa | 0 mm | - | 123 W/m² | - |
| 1778354259 | 23.33° C | 54% | 1011.6 hPa | 0 mm | - | 144 W/m² | - |
| 1778353956 | 23.89° C | 53% | 1011.6 hPa | 0 mm | - | 127 W/m² | - |
| 1778353652 | 23.89° C | 53% | 1011.7 hPa | 0 mm | - | 141 W/m² | - |
| 1778353349 | 23.89° C | 55% | 1011.6 hPa | 0 mm | - | 180 W/m² | - |
| 1778353047 | 23.33° C | 55% | 1011.6 hPa | 0 mm | - | 158 W/m² | - |
* Rain latest hour (hover to see other rain measurements)
** Current wind speed in m/s (hover to see current wind gust speed)